Location: Allaines
(49.9632°N, 2.9458°E)
Time: 23:33:42
(UTC+00:00)

Cosmos 1908 - Pass Details

Date: 09 April 2020
Orbit: 511 x 531 km, 82.5° (Epoch: 27 May)

Event Time Altitude Azimuth Distance (km) Brightness Sun altitude
Rises 19:04:19 0° 174° (S) 2,640 6.5 -5.6°
Reaches altitude 10° 19:06:28 10° 169° (S) 1,761 5.6 -5.9°
Maximum altitude 19:10:13 49° 94° (E) 692 3.5 -6.5°
Drops below altitude 10° 19:14:00 10° 20° (NNE) 1,787 6.0 -7.1°
Sets 19:16:12 0° 15° (NNE) 2,685 6.9 -7.4°
